User: anonymous   Login
Location: Wellington
(41.3000°S, 174.7830°E)
Time: 21:41:53
(UTC+13:00)
Language:

Cosmos 1455 - Orbit

View from above orbital plane
View from above orbital plane
View from above satellite
View from above satellite

Ground track
Ground track

The orbit data is extracted from the following two-line orbital elements,

1 14032U 83037A   19286.60714610  .00000634  00000-0  29426-4 0  9992
2 14032  82.5158 328.7860 0016420 205.1317 154.9119 15.18054382990057
Epoch (UTC): 13 October 2019 14:34:17
Eccentricity: 0.0016420
inclination: 82.5158°
perigee height: 500 km
apogee height: 523 km
right ascension of ascending node: 328.7860°
argument of perigee: 205.1317°
revolutions per day: 15.18054382
mean anomaly at epoch: 154.9119°
orbit number at epoch: 99005

The dashed part of the orbit path shows where the satellite is in the earth's shadow,  

DLR